Flag for U.S.A. Weather past 2 weeks in Cape Coral, Florida, U.S.A.

Now
86 °F

Passing clouds.


Feels Like: 97 °F
Forecast: 76 / 86 °F
Wind: 8 mph from South

Location: Page Field

Current Time: Aug 1, 2015 at 2:22:30 PM

Latest Report: Aug 1, 2015 at 1:53 PM


Visibility: 10 mi

Pressure: 29.98 "Hg

Humidity: 75%

Dew point: 77 °F

Location of Cape CoralLocation

Historic Weather in Cape Coral — Graph

°F

Cape Coral temperature yesterday

Maximum temperature yesterday: 91 °F (at 1:53 PM)
Minimum temperature yesterday: 75 °F (at 11:53 PM)
Average temperature yesterday: 83 °F

Past Weeks' High & Low Weather Summary

 TemperatureHumidityPressure
High93 °F (Jul 23, 1:53 PM)100% (Jul 26, 2:53 PM)30.08 "Hg (Jul 26, 2:53 PM)
Low73 °F (Jul 26, 8:53 AM)50% (Jul 20, 3:53 PM)29.86 "Hg (Jul 26, 3:53 AM)
Average82 °F80%29.99 "Hg
* Reported Jul 17 1:53 PM — Aug 1 1:04 PM, Cape Coral, Weather by CustomWeather, © 2015

Note: Actual official high and low records may vary slightly from our data, if they occured in-between our weather recording intervals... More about our weather records

Advertising

Cape Coral weather history for previous 24 hours

 ConditionsComfort  
Time TempWeatherWind HumidityBarometerVisibility
1:04 PM
Sat, Aug 1
87 °FThundershowers. Broken clouds.7 mph69%29.99 "Hg10 mi
12:53 PM86 °FPartly sunny.8 mph70%29.99 "Hg10 mi
11:53 AM88 °FPassing clouds.9 mph75%30.00 "Hg10 mi
10:53 AM83 °FSunny.6 mph79%30.00 "Hg10 mi
9:53 AM80 °FSunny.8 mph81%29.99 "Hg10 mi
8:53 AM78 °FSunny.3 mph87%29.98 "Hg10 mi
7:53 AM76 °FScattered clouds.5 mph94%29.97 "Hg7 mi
6:53 AM75 °FClear.No wind96%29.97 "Hg9 mi
5:53 AM75 °FClear.No wind94%29.97 "Hg10 mi
4:53 AM74 °FPassing clouds.5 mph94%29.98 "Hg10 mi
3:53 AM73 °FLight rain. Clear.7 mph97%29.97 "Hg10 mi
2:53 AM74 °FRain. Fog.7 mph97%30.01 "Hg5 mi
1:53 AM76 °FThundershowers. Fog.5 mph94%30.05 "Hg2 mi
1:04 AM76 °FStrong thunderstorms. Fog.9 mph94%30.04 "Hg2 mi
12:53 AM76 °FThunderstorms. Passing clouds.No wind91%30.04 "Hg10 mi
11:53 PM
Fri, Jul 31
75 °FThundershowers. Partly cloudy.8 mph94%30.03 "Hg9 mi
11:00 PM76 °FThunderstorms. Fog.6 mph94%30.01 "Hg6 mi
9:53 PM83 °FThundershowers. Passing clouds.7 mph74%30.01 "Hg10 mi
8:53 PM85 °FPassing clouds.6 mph75%29.99 "Hg10 mi
7:53 PM85 °FSunny.7 mph72%29.98 "Hg10 mi
6:53 PM86 °FSunny.5 mph70%29.96 "Hg10 mi
5:53 PM85 °FSunny.8 mph72%29.97 "Hg10 mi
4:53 PM85 °FBroken clouds.12 mph72%29.98 "Hg10 mi
3:53 PM89 °FScattered clouds.13 mph61%29.99 "Hg10 mi
2:53 PM89 °FScattered clouds.13 mph61%29.99 "Hg10 mi
Weather by CustomWeather, © 2015

See weather overviewHow to use our weather pages